CZ-2D DEB, 35273

Orbit data source: Space-Track

CZ-2D DEB, 35273 is space debris in SSO originally from a launch on Tue, 05 Jul 2005 UTC launched from the Jiuquan Satellite Launch Center, China (JSC). Debris objects in space refer to the collection of defunct objects orbiting the Earth. Examples of debris include non-operational satellites, rocket bodies, and fragments generated from explosions, collisions, or faulty payload assembly.

Loading next visibility...
CZ-2D DEB details
Identifier
35273, 2005-024M
Orbit
SSO
Last TLE update16 hours ago
Origin
Flag of CNCASC (CN / PRC)
ManufacturerUnknown
MissionSpacecraft
Bus & MotorUnknown
MassUnknown
Launch date (UTC)
2005-07-05 (19 years ago)
Launch vehicleUnknown
Launch site
Jiuquan Satellite Launch Center, China (JSC)
Object type
Payload
Rocket body
Debris
Shape & HBRUnknown
Radar Cross SectionSmall (<0.1 m²)

Expand to show TLE details & history

TLE from 16 hours ago
0 CZ-2D DEB
1 35273U 05024M   24360.86328840  .00036320  00000-0  73681-3 0  9997
2 35273  97.2028  25.3190 0005166 280.9609  79.1059 15.46269376 94342
Epoch: 2024-12-25T20:43Z
Definitive object data (Epoch: 2024-12-25T20:43:08.117Z)
Latitude-0.0001°
Longitude-20.31574°
Altitude430.12 km
Speed7.654 km/s
True Right ascension01h 41m 16s
True Declination0° 00' 00"
Sunlit
Object was in daylight at TLE epoch
Visualization TLE readout
Latitude45.86774°
Longitude-27.10756°
Altitude436.763 km
Speed7.653 km/s
Apparent Right ascension00h 30m 37s
Apparent Declination4° 48' 28"
Sunlit
Object is in full shadow
Visualization observer readout
Local Sidereal Time11:48:27
Azimuth345.258° N
Elevation-44.235°
Doppler factor1
Orbital elements
Apogee altitude428.087 km
Perigee altitude421.059 km
Semi-major axis6,802.71 km
Eccentricity0.0005166
Inclination97.2028°
RAAN25.319°
Arg. of periapsis280.9609°
True anomaly79.16404°
Mean anomaly79.1059°
Eccentric anomaly79.13497°
Mean motion3.8683 °/min
BSTAR0.00073681
Orbital period93.06 mins
Loading maneuver chart data...
Loading historical data...
Loading historical data...
Loading historical data...
Loading historical data...
Loading historical data...
Loading historical data...
Loading historical data...

CZ-2D DEB Visibility forecast

Observer location: undefined°, undefined

Span
Click to sort rows by Start time (UTC) header in descending order
Start Az.
Max El. time (UTC)
Max El. Az.
Max El.
End time (UTC)
End Az.
5 mins2024-12-26 14:21:56.756Z30.588° NE2024-12-26 14:24:56.756Z119.119° SE31.451°2024-12-26 14:26:56.756Z165.067° S
5 mins2024-12-27 02:20:56.756Z194.615° SSW2024-12-27 02:23:56.756Z266.592° W29.754°2024-12-27 02:25:56.756Z321.521° NNW
|